Location: Cointrin
(46.2167°N, 6.1167°E)
Time: 05:26:31
(UTC+00:00)

CZ-4 R/B - Pass Details

Date: 08 February 2023
Orbit: 526 x 587 km, 97.7° (Epoch: 25 March)

Event Time Altitude Azimuth Distance (km) Brightness Sun altitude
Rises 19:26:11 0° 193° (SSW) 2,786 5.0 -27.3°
Reaches altitude 10° 19:28:36 10° 206° (SSW) 1,884 4.2 -27.7°
Maximum altitude 19:32:05 27° 265° (W) 1,125 3.5 -28.3°
Drops below altitude 10° 19:35:32 10° 323° (NW) 1,867 4.5 -28.9°
Sets 19:37:56 0° 336° (NNW) 2,756 5.3 -29.3°
